[[{"header":{"parameterUnit":"m.s-1","parameterCategory":1,"la1":30.2991,"la2":30.254,"lo1":-89.0895,"lo2":-89.0444,"dy":0.0017,"dx":0.0017,"nx":28,"ny":28,"refTime":"2023-11-05T09:00:00:Z","depth":0,"parameterNumber":2,"parameterNumberName":"U-component_of_WINDS"},"data":[0,0,0,0,0,0,0,0,0,0,0,0,0,0,0,0,0,0,0,0,0,0,0,0,0,0,0,0,0,0,0,0,0,0,0,0,0,0,0,0,0,0,0,0,0,0,0,0,0,0,0,0,0,0,0,0,0,0,1.8124,1.8124,0,1.8129,1.8129,1.8129,1.8031,1.8029,1.8026,1.8024,1.803,1.8033,1.8035,0,0,0,0,0,0,0,0,0,0,0,0,0,1.8033,1.8035,1.8124,1.8124,1.8124,1.8129,1.8129,1.8129,1.8032,1.8029,1.8025,1.8022,1.8029,1.8032,1.8035,0,0,0,0,0,0,0,0,0,0,0,0,0,1.8059,1.8036,1.8124,1.8076,1.8072,1.8129,1.8129,1.8129,1.8032,1.8029,1.8025,1.8021,1.8028,1.8032,1.8036,1.8139,0,0,1.8048,1.805,0,0,0,0,0,0,0,0,1.8057,1.8062,1.8083,1.808,1.8075,1.8075,1.8099,1.8132,1.8033,1.8048,1.8024,1.8019,1.8048,1.805,1.806,1.8139,1.814,1.8048,1.8051,1.8052,1.8053,0,0,0,0,0,0,0,1.8056,1.8061,1.8126,1.8084,1.8079,1.8055,1.8055,1.8105,1.807,1.8046,1.8039,1.8041,1.8045,1.8056,1.8059,1.814,1.8048,1.8052,1.8054,1.8056,1.8305,1.8309,0,0,0,0,0,0,1.806,1.8061,1.8126,1.8126,1.8056,1.806,1.8059,1.8079,1.8069,1.8064,1.8044,1.8036,1.8052,1.8055,1.8059,1.8179,1.8052,1.8056,1.8058,1.8301,1.8306,1.831,0,0,0,0,0,0,1.8059,1.8067,1.8125,1.8091,1.8097,1.8066,1.8089,1.8081,1.8092,1.8068,1.8061,1.8062,1.8049,1.8054,1.812,1.8178,1.8058,1.8061,1.8296,1.8302,1.8308,1.8421,0,0,0,0,0,0,1.8056,1.8067,1.8105,1.8093,1.8099,1.8186,1.8093,1.8084,1.8099,1.8089,1.8082,1.8078,1.8046,1.8115,1.8124,1.8182,1.8064,1.829,1.8298,1.8306,1.8412,1.843,1.8446,0,0,0,0,0,1.8054,1.8137,1.8108,1.8116,1.8146,1.8189,1.8193,1.8154,1.8104,1.8143,1.8127,1.8078,1.8171,1.8122,1.8132,1.8192,1.8286,1.8296,1.8305,1.8404,1.8427,1.8446,0,0,0,0,0,0,1.8157,1.8134,1.8102,1.8183,1.8189,1.8173,1.822,1.8179,1.8199,1.8189,1.8141,1.814,1.8215,1.821,1.8156,1.8291,1.822,1.8232,1.8291,1.8313,1.833,1.8329,1.8068,0,0,0,0,0,1.8189,1.8225,1.8204,1.8278,1.8283,1.8251,1.8268,1.8238,1.8242,1.8244,1.8233,1.824,1.827,1.8291,1.8318,1.8411,1.8409,1.8457,1.8474,1.8489,1.8499,1.8549,1.857,1.8342,1.8342,1.8342,0,0,1.8256,1.8248,1.8274,1.8299,1.8299,1.8339,1.8254,1.8298,1.8327,1.8251,1.8313,1.8306,1.831,1.839,1.8425,1.8388,1.8562,1.8501,1.8512,1.8515,1.8561,1.8582,1.8602,1.8348,1.8347,1.8346,0,0,1.8397,1.8395,1.8457,1.846,1.8462,1.8441,1.8456,1.8447,1.8439,1.85,1.8444,1.8478,1.8532,1.8537,1.8547,1.8693,1.8648,1.8703,1.8793,1.8841,1.8859,1.8875,1.8927,1.8946,1.8714,1.8714,1.8715,0,1.848,1.8536,1.8494,1.8543,1.8555,1.8489,1.8552,1.8557,1.8568,1.8579,1.8538,1.8604,1.8602,1.8683,1.8719,1.8729,1.8745,1.8703,1.886,1.8875,1.8889,1.8938,1.8958,1.8721,1.872,1.8719,1.8719,0,1.8638,1.8678,1.8728,1.874,1.8759,1.8815,1.8782,1.8806,1.8775,1.8759,1.8823,1.8818,1.8843,1.8861,1.8831,1.8938,1.8915,1.8868,1.8795,1.8918,1.8964,1.8982,1.873,1.8728,1.8726,1.8724,0,0,1.8842,1.8832,1.8851,1.8856,1.8855,1.8885,1.8939,1.8963,1.8985,1.8996,1.904,1.9088,1.9045,1.9056,1.9027,1.907,1.9186,1.9017,1.9017,1.9048,1.9304,1.9338,1.9361,1.9157,1.9161,1.9163,1.9303,0,1.8979,1.9068,1.9033,1.9126,1.9163,1.9101,1.9148,1.9153,1.914,1.917,1.9156,1.919,1.9131,1.9137,1.9177,1.9163,1.9236,1.9153,1.9198,1.92,1.9197,1.9384,1.9421,1.9553,1.9321,1.9324,1.9326,0,1.915,1.9168,1.9264,1.9258,1.9272,1.9315,1.9335,1.9364,1.9369,1.9357,1.9371,1.9332,1.9385,1.9314,1.9386,1.933,1.9347,1.9343,1.9348,1.9349,1.9269,1.9391,1.9594,1.9614,1.9353,1.9351,1.9349,0,1.9288,1.9337,1.9401,1.9408,1.9402,1.9434,1.9433,1.9434,1.9451,1.947,1.948,1.9505,1.9518,1.9539,1.9508,1.9459,1.9586,1.9511,1.9577,1.9578,1.9605,1.9603,1.9813,1.9618,1.9618,1.9617,1.9617,0,1.9444,1.9505,1.9463,1.9503,1.957,1.953,1.9598,1.9591,1.9593,1.963,1.958,1.9616,1.9575,1.9608,1.9585,1.9649,1.9655,1.9647,1.964,1.9651,1.9652,1.966,1.9649,1.9622,1.9621,1.962,1.9619,0,1.9609,1.9583,1.9649,1.9639,1.9638,1.9689,1.968,1.9717,1.9701,1.9749,1.9758,1.9734,1.977,1.9742,1.9778,1.9763,1.9847,1.9828,1.9845,1.9839,1.9906,1.99,2.0128,2.0155,1.9943,1.9945,1.9947,0,1.9709,1.9755,1.9751,1.9772,1.9774,1.981,1.9827,1.9791,1.9811,1.9822,1.9858,1.989,1.9913,1.9974,1.996,1.9988,1.9968,2.0046,1.9971,1.9981,1.9968,1.9965,1.997,2.006,2.0063,2.0065,2.0067,0,1.989,1.9875,1.9903,1.9927,1.9949,1.9966,1.9979,2.0,1.9963,1.9989,2.0025,2.0044,2.0081,2.0114,2.0137,2.0136,2.0096,2.0091,2.0107,2.0118,2.0126,2.0122,1.9885,2.0085,2.0083,2.0082,2.0081,2.008,2.0025,2.0063,2.0066,2.0099,2.0105,2.0119,2.0153,2.0142,2.0171,2.0198,2.0176,2.022,2.0225,2.0252,2.0257,2.0292,2.0259,2.0283,2.0289,2.0295,2.0305,2.0122,2.0296,2.0295,2.0295,2.0294,2.0294,0,2.0202,2.0201,2.0232,2.0252,2.0278,2.0239,2.0251,2.0276,2.0315,2.0324,2.0349,2.0391,2.0423,2.0413,2.0441,2.0471,2.0453,2.048,2.0477,2.0477,2.0332,2.0315,2.0494,2.0494,2.0494,2.0494,2.0494,2.0494,2.0297,2.0359,2.0346,2.0412,2.0411,2.0454,2.0464,2.0477,2.0484,2.0534,2.0561,2.0554,2.0555,2.0584,2.0612,2.0608,2.062,2.0654,2.0643,2.0507,2.0487,2.0469,2.0452,2.0657,2.0657,2.0785,2.0786,2.0787]},{"header":{"parameterUnit":"m.s-1","parameterCategory":1,"la1":30.2991,"la2":30.254,"lo1":-89.0895,"lo2":-89.0444,"dy":0.0017,"dx":0.0017,"nx":28,"ny":28,"refTime":"2023-11-05T09:00:00:Z","depth":0,"parameterNumber":3,"parameterNumberName":"V-component_of_WINDS"},"data":[0,0,0,0,0,0,0,0,0,0,0,0,0,0,0,0,0,0,0,0,0,0,0,0,0,0,0,0,0,0,0,0,0,0,0,0,0,0,0,0,0,0,0,0,0,0,0,0,0,0,0,0,0,0,0,0,0,0,0.3636,0.3637,0,0.3675,0.3676,0.3676,0.3654,0.3653,0.3652,0.3651,0.3692,0.3694,0.3696,0,0,0,0,0,0,0,0,0,0,0,0,0,0.3545,0.3546,0.3636,0.3637,0.3637,0.3675,0.3676,0.3676,0.3655,0.3653,0.3652,0.3651,0.3692,0.3694,0.3696,0,0,0,0,0,0,0,0,0,0,0,0,0,0.3584,0.3547,0.3636,0.3631,0.3631,0.3675,0.3676,0.3677,0.3655,0.3653,0.3652,0.365,0.3691,0.3694,0.3697,0.3749,0,0,0.3706,0.3708,0,0,0,0,0,0,0,0,0.3582,0.3587,0.3631,0.3631,0.3631,0.3658,0.3658,0.3701,0.3655,0.3646,0.3651,0.3649,0.3682,0.3686,0.3697,0.3751,0.3752,0.3707,0.3709,0.371,0.3711,0,0,0,0,0,0,0,0.3579,0.3586,0.3652,0.3632,0.3632,0.3627,0.3631,0.3666,0.3673,0.3647,0.3645,0.365,0.3682,0.3694,0.3698,0.3753,0.3707,0.3709,0.3711,0.3713,0.3853,0.3855,0,0,0,0,0,0,0.3577,0.3584,0.3651,0.3653,0.3602,0.363,0.3634,0.3651,0.3672,0.3674,0.3651,0.3649,0.3689,0.3694,0.3699,0.3763,0.371,0.3713,0.3715,0.3851,0.3853,0.3855,0,0,0,0,0,0,0.3575,0.3583,0.3649,0.3618,0.3626,0.3634,0.3653,0.3653,0.3665,0.3676,0.3677,0.3662,0.3688,0.3695,0.3737,0.3764,0.3714,0.3717,0.3849,0.3852,0.3854,0.3889,0,0,0,0,0,0,0.3572,0.3582,0.3602,0.3618,0.3628,0.3686,0.3654,0.3655,0.367,0.3667,0.3686,0.3688,0.3688,0.3732,0.374,0.3767,0.372,0.3847,0.385,0.3854,0.3886,0.3893,0.3899,0,0,0,0,0,0.3569,0.361,0.3603,0.3611,0.3652,0.3687,0.3693,0.3691,0.3672,0.3693,0.37,0.3687,0.3759,0.3737,0.3745,0.3774,0.3845,0.3849,0.3853,0.3883,0.3891,0.3899,0,0,0,0,0,0,0.3596,0.3612,0.3604,0.3651,0.3668,0.3684,0.3709,0.37,0.3722,0.3719,0.3716,0.3721,0.3765,0.3773,0.3748,0.3826,0.3799,0.3805,0.3819,0.3827,0.3834,0.3831,0.3722,0,0,0,0,0,0.3607,0.3634,0.3647,0.3687,0.3696,0.3701,0.3716,0.3714,0.3731,0.3738,0.3748,0.3766,0.3792,0.381,0.3835,0.3886,0.3891,0.391,0.3917,0.3922,0.3928,0.3957,0.3966,0.3869,0.3869,0.3869,0,0,0.3631,0.3643,0.366,0.3693,0.3706,0.3734,0.3707,0.3738,0.376,0.3743,0.3784,0.3792,0.3811,0.3859,0.388,0.3867,0.3956,0.3928,0.3932,0.3934,0.3963,0.3972,0.398,0.3872,0.3871,0.3871,0,0,0.369,0.3701,0.3737,0.375,0.3769,0.3773,0.3781,0.3798,0.3803,0.3844,0.3832,0.3858,0.3903,0.3918,0.3932,0.3997,0.3987,0.4005,0.404,0.4069,0.4076,0.4083,0.4108,0.4117,0.401,0.4011,0.4011,0,0.3717,0.3759,0.3756,0.3789,0.3804,0.379,0.3827,0.384,0.3867,0.3878,0.3863,0.3921,0.3933,0.3984,0.4,0.4011,0.4022,0.4003,0.4075,0.4082,0.4089,0.4112,0.4121,0.4013,0.4013,0.4012,0.4012,0,0.3793,0.3822,0.3849,0.3876,0.3894,0.3928,0.3931,0.395,0.3946,0.3951,0.3993,0.4007,0.4036,0.4047,0.4043,0.4099,0.409,0.4075,0.4049,0.41,0.4122,0.4131,0.4016,0.4015,0.4014,0.4014,0,0,0.3869,0.3894,0.3904,0.3917,0.3938,0.3961,0.3995,0.4023,0.404,0.4059,0.4088,0.4128,0.4114,0.413,0.4127,0.4152,0.4205,0.4134,0.4135,0.4148,0.4269,0.4281,0.4291,0.4198,0.42,0.4201,0.4268,0,0.393,0.399,0.3989,0.4044,0.4073,0.406,0.409,0.4107,0.4112,0.4138,0.4144,0.4172,0.4152,0.4161,0.4185,0.4194,0.4229,0.4188,0.4227,0.4228,0.4224,0.4303,0.4315,0.4377,0.4276,0.4277,0.4279,0,0.4009,0.4031,0.409,0.4108,0.412,0.4147,0.4173,0.4197,0.4216,0.4218,0.4236,0.423,0.4266,0.4238,0.4288,0.426,0.4275,0.4282,0.4284,0.4289,0.4257,0.4311,0.4397,0.4407,0.4292,0.4291,0.429,0,0.4061,0.4105,0.4147,0.4157,0.4179,0.4199,0.4209,0.4226,0.4243,0.4266,0.4277,0.4304,0.4319,0.434,0.4342,0.4321,0.4393,0.4364,0.4397,0.4397,0.4413,0.4413,0.4505,0.4421,0.4421,0.4421,0.4421,0,0.413,0.4166,0.417,0.4196,0.4237,0.4236,0.4277,0.4285,0.4301,0.4328,0.4319,0.4345,0.4345,0.4372,0.4373,0.4416,0.4422,0.4426,0.4426,0.4428,0.4427,0.4438,0.4435,0.4423,0.4423,0.4422,0.4422,0,0.4195,0.4198,0.4243,0.426,0.4265,0.4295,0.431,0.4335,0.434,0.4375,0.4383,0.4392,0.4423,0.4427,0.4463,0.4464,0.4515,0.451,0.4509,0.4509,0.4542,0.4539,0.4646,0.466,0.4566,0.4567,0.4567,0,0.4239,0.4267,0.4287,0.4305,0.4316,0.4345,0.4363,0.4362,0.4381,0.4406,0.4428,0.4458,0.4483,0.4534,0.4543,0.4572,0.4568,0.4603,0.4572,0.4573,0.457,0.4569,0.4573,0.461,0.4611,0.4611,0.4612,0,0.4317,0.4318,0.4344,0.4371,0.4392,0.4413,0.4433,0.4448,0.4451,0.4473,0.4505,0.4524,0.4561,0.4592,0.462,0.4631,0.4623,0.4622,0.4631,0.4634,0.4632,0.4635,0.4527,0.462,0.4619,0.4618,0.4618,0.4618,0.4374,0.4399,0.4418,0.4447,0.4462,0.4481,0.4506,0.4515,0.4541,0.4572,0.457,0.4606,0.4625,0.4662,0.4675,0.4704,0.4692,0.4705,0.4709,0.4712,0.4717,0.4627,0.4709,0.4708,0.4708,0.4708,0.4708,0,0.4453,0.4465,0.4492,0.4521,0.4544,0.4534,0.4555,0.4576,0.4608,0.4626,0.4651,0.4689,0.4719,0.4731,0.4761,0.4781,0.4778,0.4789,0.4788,0.4791,0.4724,0.4714,0.4791,0.4791,0.4791,0.4791,0.4791,0.4791,0.4497,0.454,0.4543,0.4593,0.4605,0.464,0.4653,0.4672,0.4687,0.4729,0.4754,0.4762,0.4779,0.481,0.4837,0.484,0.4852,0.4865,0.4867,0.4804,0.4796,0.4788,0.4778,0.4868,0.4868,0.4931,0.4932,0.4932]}]]